"startDT [UTC]","vpos","CH4 [ppm]","stdev(CH4) [ppm]","CO2 [ppm]","stdev(CO2) [ppm]","H2O [ppm]","stdev(H2O)","p_LGR [torr]","T_LGR [C]","mt1_LGR [us]","mt2_LGR [us]","T_ECpre [C]","T_EC1 [C]","T_EC2 [C]","p_inlet [hPa]","p_in [hPa]","p_out [hPa]","T_inlet [C]","RH_inlet [%]","dwpt_inlet [C]","T_vent [C]","RH_vent [%]","dwpt_vent [C]","flow_vent [l min-1]","flow_inlet [l min-1]","dwpt_sample [C]","T_room [C]"
2013-04-30 00:00:00,0.0,1.9195,0.0009,407.69,0.27,281.8,34.8,138.10,28.89,24.65,36.39,0.04,-272.76,-272.76,-41,556,-937,22.0,9.3,-11.9,22.3,9.4,-11.5,5.73,2.42,-23.4,28.2
2013-04-30 00:01:00,0.0,1.9194,0.0010,407.60,0.33,279.8,37.1,138.10,28.88,24.65,36.40,0.04,-272.76,-272.76,-40,557,-936,22.0,9.4,-11.8,22.3,9.5,-11.4,5.73,2.41,-23.4,28.2
2013-04-30 00:02:00,0.0,1.9196,0.0008,407.63,0.30,278.2,39.9,138.10,28.88,24.65,36.39,0.04,-272.77,-272.77,-41,557,-937,22.0,9.4,-11.7,22.4,9.5,-11.4,5.73,2.39,-23.3,28.2
2013-04-30 00:03:00,0.0,1.9201,0.0009,407.65,0.28,272.4,32.0,138.10,28.88,24.65,36.39,0.04,-272.76,-272.76,-41,557,-936,22.0,9.4,-11.7,22.4,9.5,-11.3,5.73,2.38,-23.3,28.2
2013-04-30 00:04:00,0.0,1.9196,0.0010,407.68,0.23,278.2,35.3,138.10,28.88,24.65,36.40,0.04,-272.76,-272.76,-41,557,-937,22.1,9.5,-11.6,22.4,9.6,-11.2,5.73,2.39,-23.3,28.2
2013-04-30 00:05:00,0.0,1.9195,0.0009,407.70,0.32,277.3,31.1,138.10,28.88,24.65,36.39,0.04,-272.77,-272.76,-41,557,-936,22.1,9.6,-11.4,22.4,9.8,-11.0,5.73,2.41,-23.3,28.2
2013-04-30 00:06:00,0.0,1.9199,0.0009,407.76,0.27,280.4,37.7,138.10,28.87,24.65,36.39,0.04,-272.76,-272.76,-41,557,-937,22.1,9.7,-11.3,22.4,9.8,-10.9,5.73,2.43,-23.3,28.2
2013-04-30 00:07:00,0.0,1.9199,0.0010,407.68,0.26,272.2,30.3,138.10,28.87,24.65,36.39,0.04,-272.76,-272.76,-41,557,-936,22.1,9.8,-11.2,22.4,9.9,-10.9,5.73,2.44,-23.3,28.2
2013-04-30 00:08:00,0.0,1.9196,0.0009,407.71,0.28,284.2,35.2,138.10,28.87,24.65,36.40,0.04,-272.76,-272.76,-41,557,-937,22.1,9.8,-11.2,22.4,9.9,-10.8,5.73,2.44,-23.3,28.2
2013-04-30 00:09:00,0.0,1.9204,0.0010,407.66,0.28,278.4,38.9,138.10,28.87,24.65,36.40,0.04,-272.77,-272.77,-41,557,-937,22.1,9.9,-11.1,22.4,10.0,-10.7,5.73,2.42,-23.3,28.3
2013-04-30 00:10:00,0.0,1.9199,0.0009,407.71,0.29,286.6,36.4,138.09,28.87,24.65,36.39,0.04,-272.76,-272.76,-41,557,-936,22.1,10.0,-11.0,22.4,10.1,-10.6,5.73,2.40,-23.3,28.3
2013-04-30 00:11:00,0.0,1.9201,0.0011,407.66,0.31,281.5,36.9,138.09,28.87,24.65,36.40,0.04,-272.76,-272.76,-41,557,-937,22.2,10.0,-10.9,22.4,10.1,-10.5,5.73,2.38,-23.3,28.3
2013-04-30 00:12:00,0.0,1.9195,0.0010,407.67,0.28,288.3,36.7,138.10,28.87,24.65,36.39,0.04,-272.77,-272.77,-41,557,-937,22.1,10.1,-10.8,22.4,10.2,-10.4,5.73,2.39,-23.3,28.3
2013-04-30 00:13:00,0.0,1.9192,0.0008,407.66,0.30,287.3,33.0,138.10,28.87,24.65,36.39,0.04,-272.76,-272.76,-41,557,-937,22.1,10.3,-10.5,22.4,10.4,-10.2,5.73,2.40,-23.3,28.3
2013-04-30 00:14:00,0.0,1.9192,0.0009,407.72,0.23,285.7,33.8,138.10,28.87,24.65,36.39,0.04,-272.76,-272.76,-41,557,-937,22.2,10.5,-10.3,22.4,10.6,-9.9,5.73,2.42,-23.2,28.2
2013-04-30 00:15:00,0.0,1.9190,0.0008,407.69,0.32,287.4,33.7,138.10,28.87,24.66,36.39,0.04,-272.76,-272.77,-41,557,-937,22.2,10.7,-10.0,22.5,10.8,-9.6,5.73,2.44,-23.2,28.2
2013-04-30 00:16:00,0.0,1.9192,0.0009,407.54,0.26,285.2,32.3,138.10,28.87,24.65,36.40,0.04,-272.76,-272.77,-41,557,-937,22.2,10.9,-9.8,22.5,11.0,-9.4,5.73,2.45,-23.2,28.3
2013-04-30 00:17:00,0.0,1.9189,0.0010,407.72,0.30,294.5,32.7,138.10,28.86,24.65,36.39,0.04,-272.76,-272.76,-41,557,-937,22.2,11.0,-9.6,22.5,11.2,-9.3,5.73,2.43,-23.2,28.3
2013-04-30 00:18:00,0.0,1.9190,0.0009,407.69,0.31,289.9,39.1,138.09,28.86,24.65,36.39,0.04,-272.76,-272.77,-41,557,-937,22.2,11.2,-9.4,22.5,11.4,-9.0,5.73,2.41,-23.2,28.3
2013-04-30 00:19:00,0.0,1.9190,0.0013,407.69,0.25,290.1,33.3,138.09,28.86,24.65,36.39,0.04,-272.77,-272.76,-41,557,-937,22.2,11.4,-9.2,22.5,11.6,-8.8,5.73,2.39,-23.2,28.3
2013-04-30 00:20:00,0.0,1.9191,0.0009,407.60,0.25,287.3,38.8,138.10,28.86,24.65,36.40,0.04,-272.76,-272.76,-41,557,-937,22.2,11.6,-9.0,22.5,11.7,-8.6,5.73,2.38,-23.2,28.2
2013-04-30 00:21:00,0.0,1.9194,0.0010,407.69,0.29,296.1,38.7,138.09,28.86,24.66,36.39,0.04,-272.76,-272.76,-41,557,-937,22.3,11.7,-8.8,22.5,11.9,-8.5,5.73,2.38,-23.2,28.2
2013-04-30 00:22:00,0.0,1.9193,0.0010,407.59,0.27,301.1,36.7,138.09,28.86,24.65,36.39,0.04,-272.76,-272.77,-41,557,-937,22.3,11.9,-8.6,22.5,12.0,-8.3,5.73,2.40,-23.2,28.2
2013-04-30 00:23:00,0.0,1.9192,0.0009,407.66,0.27,295.9,31.6,138.09,28.86,24.65,36.40,0.04,-272.76,-272.77,-41,558,-936,22.3,12.0,-8.5,22.5,12.2,-8.1,5.73,2.44,-23.2,28.3
2013-04-30 00:24:00,0.0,1.9193,0.0010,407.65,0.26,294.8,35.9,138.10,28.86,24.65,36.39,0.04,-272.76,-272.76,-41,557,-937,22.3,12.1,-8.4,22.5,12.3,-8.0,5.73,2.45,-23.1,28.3
2013-04-30 00:25:00,0.0,1.9198,0.0010,407.59,0.30,294.9,37.2,138.10,28.86,24.65,36.40,0.04,-272.76,-272.77,-41,558,-936,22.3,12.2,-8.3,22.6,12.4,-7.9,5.73,2.44,-23.1,28.3
2013-04-30 00:26:00,0.0,1.9206,0.0009,407.69,0.30,299.6,32.7,138.10,28.86,24.65,36.39,0.04,-272.76,-272.76,-41,558,-937,22.3,12.1,-8.3,22.6,12.3,-7.9,5.73,2.42,-23.1,28.3
2013-04-30 00:27:00,0.0,1.9200,0.0009,407.66,0.26,294.5,36.9,138.10,28.85,24.65,36.40,0.04,-272.76,-272.77,-41,558,-937,22.3,12.1,-8.4,22.6,12.3,-7.9,5.73,2.40,-23.1,28.3
2013-04-30 00:28:00,0.0,1.9201,0.0010,407.64,0.30,286.9,34.2,138.09,28.85,24.65,36.39,0.04,-272.76,-272.76,-41,558,-937,22.3,12.1,-8.4,22.6,12.3,-8.0,5.73,2.38,-23.1,28.3
2013-04-30 00:29:00,0.0,1.9194,0.0010,407.58,0.31,296.2,37.5,138.10,28.85,24.66,36.40,0.04,-272.76,-272.76,-41,558,-937,22.3,12.0,-8.4,22.6,12.2,-8.0,5.73,2.38,-23.1,28.3
2013-04-30 00:30:00,0.0,1.9193,0.0011,407.64,0.32,293.0,36.8,138.09,28.85,24.65,36.40,0.04,-272.76,-272.76,-41,558,-937,22.3,11.9,-8.5,22.6,12.1,-8.1,5.73,2.40,-23.1,28.3
2013-04-30 00:31:00,0.0,1.9200,0.0013,407.72,0.35,303.5,35.0,138.09,28.85,24.65,36.39,0.04,-272.76,-272.76,-41,558,-937,22.4,11.8,-8.6,22.6,12.0,-8.3,5.73,2.43,-23.1,28.3
2013-04-30 00:32:00,0.0,1.9210,0.0008,407.75,0.30,298.6,32.3,138.09,28.85,24.65,36.40,0.04,-272.77,-272.76,-41,558,-937,22.4,11.7,-8.7,22.6,11.9,-8.3,5.73,2.45,-23.0,28.3
2013-04-30 00:33:00,0.0,1.9207,0.0009,407.78,0.27,306.1,36.9,138.10,28.85,24.65,36.39,0.04,-272.76,-272.77,-41,558,-936,22.4,11.7,-8.7,22.6,11.9,-8.3,5.73,2.44,-23.0,28.3
2013-04-30 00:34:00,0.0,1.9197,0.0010,407.73,0.24,296.1,31.2,138.09,28.85,24.65,36.39,0.04,-272.76,-272.76,-41,558,-937,22.4,11.8,-8.7,22.7,12.0,-8.3,5.73,2.42,-23.0,28.3
2013-04-30 00:35:00,0.0,1.9191,0.0009,407.56,0.27,300.5,38.3,138.09,28.85,24.65,36.40,0.04,-272.76,-272.76,-41,558,-936,22.4,11.9,-8.5,22.6,12.1,-8.1,5.73,2.40,-23.0,28.4
2013-04-30 00:36:00,0.0,1.9190,0.0011,407.61,0.29,303.9,37.4,138.09,28.85,24.65,36.40,0.04,-272.77,-272.77,-41,558,-937,22.4,12.1,-8.3,22.6,12.3,-7.9,5.73,2.39,-23.0,28.4
2013-04-30 00:37:00,0.0,1.9185,0.0009,407.64,0.29,296.6,37.1,138.09,28.85,24.65,36.39,0.04,-272.76,-272.76,-41,558,-937,22.4,12.1,-8.3,22.6,12.3,-7.9,5.73,2.38,-23.0,28.3
2013-04-30 00:38:00,0.0,1.9180,0.0009,407.60,0.30,298.7,37.8,138.09,28.85,24.66,36.40,0.04,-272.76,-272.76,-41,558,-937,22.4,12.1,-8.3,22.6,12.3,-7.9,5.73,2.40,-23.0,28.3
2013-04-30 00:39:00,0.0,1.9183,0.0010,407.60,0.27,303.1,33.0,138.09,28.86,24.65,36.39,0.04,-272.76,-272.77,-41,558,-937,22.4,12.0,-8.4,22.7,12.2,-7.9,5.73,2.42,-23.0,28.3
2013-04-30 00:40:00,0.0,1.9183,0.0010,407.73,0.24,298.3,33.6,138.09,28.86,24.65,36.39,0.04,-272.76,-272.76,-41,558,-937,22.4,11.9,-8.4,22.7,12.1,-8.1,5.73,2.44,-23.0,28.3
2013-04-30 00:41:00,0.0,1.9188,0.0009,407.66,0.32,299.0,37.8,138.09,28.85,24.65,36.39,0.04,-272.76,-272.76,-41,558,-937,22.4,11.9,-8.5,22.7,12.1,-8.1,5.73,2.44,-23.0,28.4
2013-04-30 00:42:00,0.0,1.9190,0.0009,407.59,0.32,310.2,31.6,138.09,28.85,24.65,36.40,0.04,-272.77,-272.76,-41,558,-937,22.5,11.8,-8.6,22.7,12.0,-8.2,5.73,2.42,-22.9,28.4
2013-04-30 00:43:00,0.0,1.9191,0.0010,407.64,0.31,308.7,34.7,138.09,28.85,24.65,36.40,0.04,-272.77,-272.77,-41,558,-937,22.4,11.8,-8.5,22.7,12.0,-8.2,5.73,2.39,-22.9,28.4
2013-04-30 00:44:00,0.0,1.9188,0.0009,407.64,0.28,312.0,32.5,138.09,28.85,24.65,36.39,0.04,-272.76,-272.76,-41,558,-937,22.4,11.8,-8.6,22.7,12.0,-8.1,5.73,2.38,-22.9,28.4
2013-04-30 00:45:00,0.0,1.9186,0.0009,407.63,0.28,307.6,31.2,138.09,28.85,24.65,36.39,0.04,-272.76,-272.76,-41,558,-937,22.4,11.8,-8.6,22.7,12.0,-8.2,5.73,2.38,-22.9,28.4
2013-04-30 00:46:00,0.0,1.9192,0.0011,407.62,0.32,311.2,37.5,138.09,28.85,24.65,36.40,0.04,-272.77,-272.77,-41,558,-937,22.4,11.8,-8.6,22.7,12.0,-8.2,5.73,2.39,-22.9,28.4
2013-04-30 00:47:00,0.0,1.9196,0.0010,407.67,0.30,312.0,33.6,138.09,28.85,24.65,36.39,0.04,-272.76,-272.76,-41,558,-937,22.5,11.8,-8.6,22.7,11.9,-8.2,5.73,2.43,-22.9,28.4
2013-04-30 00:48:00,0.0,1.9199,0.0009,407.60,0.32,310.2,34.6,138.09,28.85,24.65,36.40,0.04,-272.76,-272.76,-41,558,-937,22.5,11.8,-8.6,22.7,11.9,-8.2,5.73,2.44,-22.9,28.4
2013-04-30 00:49:00,0.0,1.9197,0.0009,407.62,0.26,296.9,33.6,138.09,28.85,24.65,36.39,0.04,-272.77,-272.76,-41,559,-937,22.5,11.8,-8.5,22.7,12.0,-8.2,5.73,2.44,-22.9,28.4
2013-04-30 00:50:00,0.0,1.9195,0.0010,407.58,0.31,316.5,37.2,138.09,28.85,24.66,36.40,0.04,-272.76,-272.77,-41,559,-936,22.5,11.9,-8.4,22.7,12.1,-8.0,5.73,2.41,-22.8,28.4
2013-04-30 00:51:00,0.0,1.9196,0.0011,407.65,0.32,312.0,38.9,138.09,28.86,24.65,36.39,0.04,-272.76,-272.76,-41,559,-937,22.5,12.1,-8.3,22.7,12.2,-7.9,5.73,2.38,-22.8,28.4
2013-04-30 00:52:00,0.0,1.9197,0.0009,407.50,0.28,314.9,37.5,138.09,28.86,24.65,36.40,0.04,-272.76,-272.77,-41,559,-936,22.5,12.1,-8.2,22.7,12.3,-7.8,5.73,2.38,-22.8,28.4
2013-04-30 00:53:00,0.0,1.9201,0.0011,407.58,0.32,312.3,38.8,138.09,28.86,24.65,36.39,0.04,-272.76,-272.77,-41,559,-937,22.5,12.2,-8.1,22.7,12.4,-7.7,5.73,2.39,-22.8,28.4
2013-04-30 00:54:00,0.0,1.9196,0.0009,407.53,0.30,315.2,31.6,138.09,28.87,24.65,36.40,0.04,-272.76,-272.76,-41,559,-936,22.5,12.3,-8.0,22.7,12.5,-7.6,5.73,2.41,-22.8,28.4
2013-04-30 00:55:00,0.0,1.9197,0.0010,407.53,0.28,314.8,32.1,138.09,28.87,24.65,36.40,0.04,-272.76,-272.76,-41,559,-937,22.5,12.4,-7.9,22.7,12.6,-7.5,5.73,2.44,-22.8,28.4
2013-04-30 00:56:00,0.0,1.9199,0.0011,407.69,0.28,316.0,30.9,138.09,28.87,24.65,36.39,0.04,-272.77,-272.77,-41,559,-937,22.5,12.5,-7.7,22.8,12.7,-7.3,5.73,2.45,-22.8,28.4
2013-04-30 00:57:00,0.0,1.9189,0.0009,407.70,0.28,316.0,34.6,138.09,28.87,24.65,36.39,0.04,-272.76,-272.76,-41,559,-937,22.5,12.6,-7.7,22.8,12.8,-7.3,5.73,2.42,-22.7,28.5
2013-04-30 00:58:00,0.0,1.9183,0.0010,407.58,0.27,317.3,40.1,138.09,28.87,24.65,36.40,0.04,-272.76,-272.76,-41,559,-937,22.5,12.6,-7.6,22.8,12.8,-7.2,5.73,2.39,-22.7,28.4
2013-04-30 00:59:00,0.0,1.9182,0.0009,407.62,0.29,323.0,35.6,138.09,28.87,24.65,36.39,0.04,-272.77,-272.76,-41,559,-937,22.6,12.6,-7.7,22.8,12.8,-7.3,5.73,2.37,-22.7,28.5
2013-04-30 01:00:00,0.0,1.9183,0.0009,407.64,0.28,329.8,39.1,138.09,28.87,24.65,36.39,0.04,-272.76,-272.76,-41,559,-937,22.6,12.5,-7.8,22.8,12.7,-7.4,5.73,2.38,-22.7,28.5
2013-04-30 01:01:00,0.0,1.9187,0.0008,407.70,0.31,325.7,36.3,138.09,28.87,24.65,36.39,0.04,-272.76,-272.76,-41,559,-937,22.6,12.4,-7.8,22.8,12.7,-7.4,5.73,2.41,-22.7,28.5
2013-04-30 01:02:00,0.0,1.9192,0.0010,407.64,0.25,331.5,34.5,138.09,28.87,24.65,36.39,0.04,-272.76,-272.77,-41,559,-937,22.6,12.4,-7.8,22.8,12.6,-7.4,5.73,2.44,-22.6,28.5
2013-04-30 01:03:00,0.0,1.9198,0.0009,407.57,0.27,327.5,36.7,138.09,28.88,24.65,36.40,0.04,-272.76,-272.77,-41,559,-937,22.6,12.4,-7.8,22.8,12.6,-7.4,5.73,2.44,-22.6,28.5
2013-04-30 01:04:00,0.0,1.9197,0.0011,407.52,0.29,333.8,38.0,138.09,28.88,24.65,36.40,0.04,-272.76,-272.77,-41,559,-937,22.6,12.4,-7.8,22.9,12.6,-7.4,5.73,2.41,-22.6,28.5
2013-04-30 01:05:00,0.0,1.9190,0.0009,407.52,0.30,334.2,34.1,138.09,28.88,24.65,36.40,0.04,-272.76,-272.76,-41,559,-937,22.6,12.4,-7.9,22.9,12.6,-7.4,5.73,2.39,-22.6,28.5
2013-04-30 01:06:00,0.0,1.9192,0.0009,407.42,0.26,337.1,35.4,138.09,28.88,24.65,36.40,0.04,-272.77,-272.76,-41,559,-937,22.7,12.3,-7.8,22.9,12.6,-7.5,5.73,2.37,-22.6,28.5
2013-04-30 01:07:00,0.0,1.9192,0.0011,407.50,0.23,340.5,29.8,138.09,28.88,24.66,36.40,0.04,-272.76,-272.77,-41,559,-937,22.7,12.4,-7.8,22.9,12.6,-7.4,5.73,2.38,-22.6,28.5
2013-04-30 01:08:00,0.0,1.9211,0.0010,407.56,0.24,332.4,35.8,138.09,28.88,24.65,36.40,0.04,-272.76,-272.76,-41,559,-937,22.7,12.4,-7.7,22.9,12.7,-7.3,5.73,2.41,-22.6,28.5
2013-04-30 01:09:00,0.0,1.9211,0.0007,407.55,0.30,339.7,39.3,138.09,28.88,24.65,36.40,0.04,-272.77,-272.77,-41,559,-937,22.7,12.5,-7.6,22.9,12.7,-7.2,5.73,2.43,-22.5,28.5
2013-04-30 01:10:00,0.0,1.9210,0.0010,407.60,0.27,336.7,36.8,138.09,28.88,24.65,36.39,0.04,-272.77,-272.77,-41,559,-937,22.7,12.6,-7.6,22.9,12.8,-7.2,5.73,2.44,-22.5,28.5
2013-04-30 01:11:00,0.0,1.9209,0.0009,407.58,0.30,329.9,41.2,138.09,28.88,24.65,36.40,0.04,-272.76,-272.76,-41,559,-936,22.7,12.7,-7.4,22.9,12.9,-7.0,5.73,2.41,-22.5,28.5
2013-04-30 01:12:00,0.0,1.9203,0.0010,407.61,0.26,343.0,41.4,138.09,28.89,24.65,36.39,0.04,-272.77,-272.76,-41,559,-937,22.7,12.8,-7.3,22.9,13.1,-6.9,5.73,2.38,-22.5,28.5
2013-04-30 01:13:00,0.0,1.9201,0.0009,407.68,0.28,335.9,36.7,138.09,28.89,24.65,36.39,0.04,-272.77,-272.77,-41,559,-936,22.7,13.0,-7.2,23.0,13.2,-6.7,5.73,2.37,-22.5,28.5
2013-04-30 01:14:00,0.0,1.9205,0.0009,407.67,0.30,331.5,40.1,138.09,28.89,24.65,36.39,0.04,-272.76,-272.76,-41,560,-937,22.8,13.0,-7.1,23.0,13.3,-6.7,5.73,2.39,-22.5,28.5
2013-04-30 01:15:00,0.0,1.9204,0.0009,407.58,0.29,338.1,35.3,138.09,28.90,24.65,36.40,0.04,-272.76,-272.76,-41,560,-937,22.8,13.1,-7.0,23.0,13.3,-6.6,5.73,2.43,-22.4,28.5
2013-04-30 01:16:00,0.0,1.9203,0.0010,407.72,0.32,345.1,33.6,138.09,28.90,24.65,36.39,0.04,-272.77,-272.77,-41,560,-937,22.8,13.2,-6.9,23.0,13.4,-6.5,5.73,2.44,-22.4,28.6
2013-04-30 01:17:00,0.0,1.9206,0.0009,407.54,0.38,341.9,35.0,138.09,28.90,24.65,36.40,0.04,-272.76,-272.76,-41,560,-937,22.8,13.3,-6.8,23.0,13.5,-6.4,5.73,2.43,-22.4,28.6
2013-04-30 01:18:00,0.0,1.9206,0.0010,407.68,0.28,351.0,38.3,138.09,28.91,24.65,36.40,0.04,-272.76,-272.76,-41,560,-937,22.8,13.4,-6.7,23.0,13.6,-6.3,5.73,2.39,-22.4,28.6
2013-04-30 01:19:00,0.0,1.9208,0.0010,407.57,0.31,350.8,39.1,138.09,28.91,24.65,36.41,0.04,-272.77,-272.76,-42,560,-937,22.8,13.6,-6.5,23.0,13.8,-6.1,5.73,2.36,-22.4,28.6
2013-04-30 01:20:00,0.0,1.9209,0.0010,407.58,0.31,342.7,34.8,138.09,28.91,24.65,36.40,0.04,-272.76,-272.77,-42,560,-937,22.8,13.8,-6.2,23.0,14.1,-5.9,5.73,2.37,-22.4,28.6
2013-04-30 01:21:00,0.0,1.9212,0.0012,407.65,0.28,343.9,32.4,138.09,28.92,24.65,36.40,0.04,-272.76,-272.76,-42,560,-937,22.8,14.0,-6.1,23.0,14.2,-5.7,5.73,2.40,-22.4,28.7
2013-04-30 01:22:00,0.0,1.9210,0.0011,407.55,0.27,351.9,42.6,138.09,28.92,24.65,36.40,0.04,-272.76,-272.76,-42,560,-937,22.8,14.2,-5.9,23.0,14.4,-5.5,5.73,2.44,-22.3,28.7
2013-04-30 01:23:00,0.0,1.9204,0.0012,407.61,0.33,341.9,38.2,138.09,28.92,24.66,36.40,0.04,-272.77,-272.76,-42,560,-937,22.8,14.4,-5.7,23.0,14.7,-5.3,5.73,2.44,-22.3,28.7
2013-04-30 01:24:00,0.0,1.9209,0.0012,407.61,0.30,358.9,35.2,138.09,28.92,24.65,36.40,0.04,-272.76,-272.76,-41,560,-937,22.9,14.6,-5.5,23.1,14.9,-5.1,5.73,2.42,-22.3,28.7
2013-04-30 01:25:00,0.0,1.9208,0.0012,407.53,0.26,352.2,40.2,138.09,28.92,24.65,36.40,0.04,-272.76,-272.76,-41,560,-937,22.9,14.7,-5.4,23.1,14.9,-5.0,5.73,2.38,-22.3,28.7
2013-04-30 01:26:00,0.0,1.9214,0.0010,407.63,0.29,368.0,42.3,138.09,28.93,24.65,36.40,0.04,-272.76,-272.77,-41,560,-937,22.9,14.8,-5.3,23.1,15.1,-4.9,5.73,2.36,-22.3,28.7
2013-04-30 01:27:00,0.0,1.9219,0.0010,407.76,0.29,356.4,42.4,138.09,28.93,24.65,36.40,0.04,-272.76,-272.76,-41,560,-937,22.9,14.9,-5.2,23.1,15.2,-4.8,5.73,2.39,-22.3,28.7
2013-04-30 01:28:00,0.0,1.9210,0.0011,407.70,0.30,360.8,36.8,138.09,28.94,24.65,36.40,0.04,-272.76,-272.76,-42,560,-937,22.9,14.8,-5.3,23.1,15.1,-4.8,5.73,2.43,-22.2,28.7
2013-04-30 01:29:00,0.0,1.9211,0.0010,407.64,0.30,357.3,36.0,138.08,28.94,24.65,36.40,0.04,-272.76,-272.77,-42,560,-937,22.9,14.6,-5.5,23.1,14.9,-5.0,5.73,2.44,-22.2,28.7
2013-04-30 01:30:00,0.0,1.9227,0.0014,407.75,0.29,360.1,41.1,138.09,28.95,24.65,36.40,0.04,-272.76,-272.77,-42,560,-937,22.9,14.5,-5.6,23.1,14.8,-5.2,5.73,2.41,-22.2,28.7
2013-04-30 01:31:00,0.0,1.9251,0.0008,407.78,0.28,360.6,35.6,138.08,28.95,24.65,36.40,0.04,-272.76,-272.76,-42,560,-937,22.9,14.1,-5.9,23.1,14.4,-5.5,5.73,2.38,-22.2,28.7
2013-04-30 01:32:00,0.0,1.9245,0.0011,407.69,0.31,362.0,35.9,138.08,28.96,24.65,36.40,0.04,-272.76,-272.76,-42,561,-937,22.9,13.9,-6.1,23.1,14.2,-5.7,5.73,2.36,-22.2,28.7
2013-04-30 01:33:00,0.0,1.9256,0.0012,407.74,0.24,364.0,37.8,138.08,28.97,24.65,36.40,0.04,-272.76,-272.77,-42,560,-937,23.0,13.8,-6.1,23.1,14.1,-5.7,5.73,2.39,-22.2,28.7
2013-04-30 01:34:00,0.0,1.9244,0.0011,407.62,0.25,372.6,38.7,138.09,28.97,24.65,36.41,0.04,-272.76,-272.76,-41,561,-937,23.0,13.7,-6.2,23.2,14.0,-5.8,5.73,2.43,-22.1,28.7
2013-04-30 01:35:00,0.0,1.9236,0.0012,407.71,0.30,370.5,38.6,138.08,28.97,24.65,36.40,0.04,-272.76,-272.76,-41,561,-937,23.0,13.7,-6.3,23.2,13.9,-5.9,5.73,2.44,-22.1,28.8
2013-04-30 01:36:00,0.0,1.9218,0.0011,407.56,0.31,370.7,38.4,138.08,28.98,24.65,36.40,0.04,-272.76,-272.76,-42,561,-937,23.0,13.7,-6.3,23.2,13.9,-5.9,5.73,2.41,-22.1,28.8
2013-04-30 01:37:00,0.0,1.9211,0.0010,407.64,0.29,361.3,41.3,138.08,28.98,24.65,36.40,0.04,-272.76,-272.76,-42,561,-937,23.0,13.6,-6.3,23.2,13.8,-6.0,5.73,2.36,-22.1,28.7
2013-04-30 01:38:00,0.0,1.9207,0.0011,407.70,0.30,377.5,42.0,138.08,28.98,24.66,36.40,0.04,-272.76,-272.76,-42,561,-937,23.0,13.5,-6.4,23.2,13.7,-6.1,5.73,2.36,-22.1,28.8
2013-04-30 01:39:00,0.0,1.9206,0.0009,407.52,0.31,359.8,42.8,138.08,28.99,24.66,36.41,0.04,-272.76,-272.76,-42,561,-937,23.0,13.5,-6.4,23.2,13.8,-6.0,5.73,2.41,-22.1,28.8
2013-04-30 01:40:00,0.0,1.9208,0.0011,407.54,0.36,363.0,38.7,138.08,28.99,24.65,36.40,0.04,-272.76,-272.76,-42,561,-937,23.0,13.7,-6.2,23.3,13.9,-5.8,5.73,2.44,-22.1,28.8
2013-04-30 01:41:00,0.0,1.9201,0.0010,407.64,0.35,371.3,33.7,138.08,29.00,24.66,36.40,0.04,-272.76,-272.76,-42,561,-937,23.1,13.7,-6.1,23.3,14.0,-5.7,5.73,2.43,-22.0,28.8
2013-04-30 01:42:00,0.0,1.9203,0.0012,407.51,0.38,370.1,38.8,138.08,29.00,24.65,36.41,0.04,-272.76,-272.76,-42,561,-937,23.1,13.7,-6.2,23.3,14.0,-5.8,5.73,2.39,-22.0,28.8
2013-04-30 01:43:00,0.0,1.9209,0.0011,407.61,0.27,375.9,40.3,138.08,29.01,24.65,36.41,0.04,-272.76,-272.76,-42,561,-937,23.1,13.6,-6.2,23.3,13.9,-5.8,5.73,2.36,-22.0,28.8
2013-04-30 01:44:00,0.0,1.9207,0.0009,407.64,0.30,365.3,40.8,138.08,29.01,24.65,36.40,0.04,-272.76,-272.76,-42,561,-937,23.1,13.7,-6.1,23.3,13.9,-5.8,5.73,2.38,-22.0,28.8
2013-04-30 01:45:00,0.0,1.9205,0.0010,407.63,0.25,370.2,37.7,138.08,29.01,24.65,36.40,0.04,-272.76,-272.76,-42,561,-937,23.1,13.7,-6.2,23.3,13.9,-5.8,5.73,2.43,-22.0,28.8
2013-04-30 01:46:00,0.0,1.9209,0.0010,407.57,0.31,386.0,36.7,138.08,29.02,24.65,36.41,0.04,-272.76,-272.76,-42,561,-937,23.1,13.5,-6.3,23.3,13.7,-6.0,5.73,2.45,-21.9,28.8
2013-04-30 01:47:00,0.0,1.9232,0.0010,407.71,0.30,374.3,39.0,138.08,29.02,24.65,36.40,0.04,-272.76,-272.76,-42,561,-937,23.2,13.4,-6.4,23.3,13.6,-6.0,5.73,2.41,-21.9,28.8
2013-04-30 01:48:00,0.0,1.9233,0.0011,407.66,0.33,377.5,41.6,138.08,29.03,24.65,36.40,0.04,-272.76,-272.76,-42,562,-937,23.2,13.3,-6.4,23.3,13.6,-6.0,5.73,2.37,-21.9,28.8
2013-04-30 01:49:00,0.0,1.9230,0.0011,407.68,0.32,378.6,44.7,138.08,29.03,24.65,36.40,0.04,-272.76,-272.76,-42,561,-937,23.2,13.2,-6.6,23.4,13.4,-6.2,5.73,2.36,-21.9,28.9
2013-04-30 01:50:00,0.0,1.9211,0.0012,407.60,0.32,379.8,42.4,138.08,29.04,24.65,36.40,0.04,-272.77,-272.76,-42,562,-937,23.2,13.0,-6.7,23.4,13.3,-6.3,5.73,2.41,-21.9,28.9
2013-04-30 01:51:00,0.0,1.9206,0.0010,407.55,0.34,388.4,44.2,138.08,29.04,24.66,36.41,0.04,-272.76,-272.76,-42,562,-937,23.2,13.0,-6.7,23.4,13.3,-6.3,5.73,2.44,-21.9,28.9
2013-04-30 01:52:00,0.0,1.9218,0.0010,407.51,0.31,375.0,36.2,138.08,29.05,24.66,36.41,0.04,-272.76,-272.76,-42,562,-937,23.2,13.1,-6.6,23.4,13.5,-6.1,5.73,2.43,-21.8,29.0
2013-04-30 01:53:00,0.0,1.9224,0.0009,407.56,0.29,380.6,43.4,138.08,29.05,24.65,36.41,0.04,-272.77,-272.76,-42,562,-937,23.3,13.2,-6.5,23.4,13.5,-6.1,5.73,2.38,-21.9,29.0
2013-04-30 01:54:00,0.0,1.9218,0.0012,407.58,0.25,376.6,32.5,138.08,29.06,24.65,36.40,0.04,-272.76,-272.76,-42,562,-937,23.3,13.2,-6.5,23.5,13.5,-6.1,5.73,2.36,-21.8,29.0
2013-04-30 01:55:00,0.0,1.9220,0.0011,407.58,0.26,371.8,37.1,138.08,29.06,24.66,36.41,0.04,-272.76,-272.76,-42,562,-937,23.3,13.1,-6.6,23.4,13.4,-6.2,5.73,2.38,-21.8,29.0
2013-04-30 01:56:00,0.0,1.9237,0.0010,407.69,0.24,386.0,40.0,138.08,29.07,24.66,36.40,0.04,-272.76,-272.76,-42,562,-937,23.3,13.0,-6.6,23.5,13.4,-6.2,5.73,2.43,-21.8,29.0
2013-04-30 01:57:00,0.0,1.9219,0.0013,407.64,0.33,374.9,41.5,138.08,29.08,24.65,36.40,0.04,-272.76,-272.76,-42,562,-937,23.3,13.1,-6.6,23.5,13.4,-6.1,5.73,2.45,-21.8,29.0
2013-04-30 01:58:00,0.0,1.9214,0.0010,407.62,0.29,395.5,38.9,138.08,29.08,24.65,36.41,0.04,-272.76,-272.76,-42,562,-937,23.3,13.1,-6.5,23.5,13.4,-6.1,5.73,2.41,-21.8,29.0
2013-04-30 01:59:00,0.0,1.9218,0.0012,407.50,0.28,391.3,34.9,138.08,29.09,24.66,36.41,0.04,-272.76,-272.76,-42,562,-937,23.4,13.2,-6.4,23.5,13.4,-6.1,5.73,2.36,-21.7,29.0
2013-04-30 02:00:00,0.0,1.9223,0.0011,407.68,0.33,391.3,37.2,138.08,29.10,24.65,36.40,0.04,-272.77,-272.76,-42,562,-938,23.4,13.3,-6.3,23.5,13.6,-5.9,5.73,2.36,-21.7,29.0
2013-04-30 02:01:00,0.0,1.9242,0.0012,407.66,0.32,394.3,35.0,138.08,29.10,24.65,36.41,0.04,-272.76,-272.76,-42,562,-937,23.4,13.4,-6.2,23.5,13.7,-5.8,5.73,2.41,-21.7,29.1
2013-04-30 02:02:00,0.0,1.9244,0.0012,407.59,0.29,395.3,38.4,138.08,29.11,24.66,36.41,0.04,-272.76,-272.76,-42,562,-937,23.4,13.5,-6.1,23.5,13.8,-5.7,5.73,2.44,-21.7,29.1
2013-04-30 02:03:00,0.0,1.9232,0.0011,407.52,0.32,395.7,38.3,138.08,29.11,24.65,36.42,0.04,-272.76,-272.76,-42,562,-937,23.4,13.5,-6.1,23.6,13.8,-5.7,5.73,2.43,-21.7,29.1
2013-04-30 02:04:00,0.0,1.9232,0.0013,407.55,0.28,384.7,41.4,138.08,29.12,24.65,36.41,0.04,-272.77,-272.76,-42,562,-937,23.4,13.6,-6.0,23.6,13.9,-5.6,5.73,2.38,-21.7,29.1
2013-04-30 02:05:00,0.0,1.9229,0.0010,407.56,0.31,381.0,37.8,138.08,29.12,24.65,36.41,0.04,-272.76,-272.76,-42,563,-938,23.4,13.7,-5.9,23.6,14.0,-5.5,5.73,2.35,-21.6,29.1
2013-04-30 02:06:00,0.0,1.9228,0.0009,407.53,0.29,381.5,34.6,138.08,29.13,24.65,36.41,0.04,-272.76,-272.76,-42,563,-937,23.5,13.7,-5.8,23.6,14.1,-5.4,5.73,2.39,-21.6,29.0
2013-04-30 02:07:00,0.0,1.9216,0.0010,407.54,0.33,398.8,32.7,138.08,29.14,24.66,36.41,0.04,-272.76,-272.76,-42,563,-938,23.5,13.8,-5.7,23.6,14.1,-5.3,5.73,2.44,-21.6,29.1
2013-04-30 02:08:00,0.0,1.9216,0.0012,407.60,0.30,386.2,34.9,138.08,29.15,24.66,36.41,0.04,-272.76,-272.76,-42,563,-937,23.5,13.8,-5.8,23.6,14.1,-5.4,5.73,2.43,-21.6,29.1
2013-04-30 02:09:00,0.0,1.9227,0.0011,407.58,0.37,384.1,41.9,138.08,29.15,24.65,36.41,0.04,-272.76,-272.76,-42,563,-938,23.5,13.7,-5.8,23.6,14.0,-5.4,5.73,2.38,-21.6,29.1
2013-04-30 02:10:00,0.0,1.9211,0.0010,407.58,0.31,385.0,33.9,138.08,29.16,24.65,36.41,0.04,-272.77,-272.76,-42,563,-937,23.5,13.7,-5.8,23.6,14.0,-5.4,5.73,2.35,-21.6,29.1
2013-04-30 02:11:00,0.0,1.9210,0.0010,407.42,0.34,381.9,37.3,138.07,29.17,24.65,36.41,0.04,-272.77,-272.76,-42,563,-938,23.5,13.8,-5.7,23.6,14.1,-5.4,5.73,2.38,-21.5,29.2
2013-04-30 02:12:00,0.0,1.9213,0.0009,407.56,0.33,394.0,43.7,138.08,29.17,24.65,36.41,0.04,-272.76,-272.76,-42,563,-937,23.6,13.8,-5.7,23.7,14.1,-5.3,5.73,2.44,-21.5,29.2
2013-04-30 02:13:00,0.0,1.9216,0.0013,407.62,0.36,398.7,40.6,138.07,29.18,24.65,36.41,0.04,-272.76,-272.76,-42,563,-938,23.6,13.8,-5.7,23.7,14.1,-5.3,5.73,2.44,-21.5,29.2
2013-04-30 02:14:00,0.0,1.9211,0.0010,407.48,0.31,402.7,31.9,138.07,29.19,24.65,36.41,0.04,-272.76,-272.76,-42,563,-937,23.6,13.8,-5.7,23.7,14.1,-5.3,5.73,2.37,-21.5,29.2
2013-04-30 02:15:00,0.0,1.9219,0.0014,407.56,0.31,385.6,41.0,138.07,29.19,24.65,36.41,0.04,-272.76,-272.76,-42,563,-938,23.6,13.7,-5.7,23.7,14.0,-5.3,5.73,2.34,-21.5,29.2
2013-04-30 02:16:00,0.0,1.9218,0.0012,407.54,0.30,386.8,34.2,138.07,29.20,24.65,36.41,0.04,-272.76,-272.76,-42,563,-937,23.6,13.7,-5.8,23.7,14.1,-5.3,5.73,2.38,-21.5,29.2